This demonstration page uses our WeatherBlox Daily Observations layout. Learn more.

Left ArrowRight Arrow

Hourly Observations for March 2, 2020

Temp ( °F °C ) Dew Point ( °F °C ) Humidity (%) Winds ( mph kmh ) Pressure ( in mb ) Visibility ( mi km ) Precip ( " mm )
12:56 am 00:56 Mostly Cloudy 37 2.6 27 -2.9 67 67 NNW 8 13 29.96 1015 10 16 0.00 0.00
1:56 am 01:56 Cloudy 36 2.2 25 -3.7 65 65 NNW 13 20 29.98 1015 10 16 0.00 0.00
2:56 am 02:56 Mostly Clear 33 0.6 25 -3.9 72 72 NNW 6 9 29.96 1014 10 16 0.00 0.00
3:56 am 03:56 Clear 33 0.4 25 -3.9 73 73 NW 5 7 29.95 1014 10 16 0.00 0.00
4:56 am 04:56 Partly Cloudy 32 -0.2 26 -3.4 79 79 WNW 5 7 29.95 1014 10 16 0.00 0.00
5:56 am 05:56 Cloudy with Light Snow 33 0.6 28 -2.1 82 82 NNW 6 9 29.94 1014 5 8 0.00 0.00
6:56 am 06:56 Sunny 32 0.2 29 -1.6 88 88 WNW 6 9 29.94 1014 10 16 0.00 0.00
7:56 am 07:56 Mostly Cloudy 33 0.4 29 -1.4 88 88 Calm 29.93 1014 10 16 0.00 0.00
8:56 am 08:56 Cloudy 35 1.5 29 -1.6 80 80 WNW 7 11 29.94 1014 10 16 0.00 0.00
9:56 am 09:56 Cloudy 37 2.5 29 -1.9 73 73 W 5 7 29.94 1014 10 16 0.00 0.00
10:41 am 10:41 Cloudy 37 3 28 -2 70 70 WSW 5 7 29.93 1013 10 16 0.00 0.00
10:56 am 10:56 Cloudy 37 2.9 28 -2.4 68 68 WSW 3 6 29.93 1013 10 16 0.00 0.00
11:56 am 11:56 Mostly Cloudy 40 4.5 29 -1.7 64 64 S 6 9 29.89 1012 10 16 0.00 0.00
12:56 pm 12:56 Sunny 44 6.5 29 -1.6 57 57 WSW 8 13 29.85 1011 10 16 0.00 0.00
1:56 pm 13:56 Sunny 47 8.6 27 -3 44 44 SW 9 15 29.80 1009 10 16 0.00 0.00
2:56 pm 14:56 Sunny 48 9.1 26 -3.5 41 41 W 8 13 29.76 1008 10 16 0.00 0.00
3:56 pm 15:56 Cloudy 48 8.9 25 -4 40 40 WSW 9 15 29.73 1007 10 16 0.00 0.00
4:56 pm 16:56 Mostly Cloudy 48 9.1 25 -3.8 40 40 SW 7 11 29.70 1006 10 16 0.00 0.00
5:56 pm 17:56 Mostly Sunny 45 7.4 25 -3.8 45 45 SW 6 9 29.71 1006 10 16 0.00 0.00
6:56 pm 18:56 Clear 41 5.1 27 -3 56 56 SSW 6 9 29.71 1006 10 16 0.00 0.00
7:56 pm 19:56 Partly Cloudy 37 3 26 -3.4 63 63 SSE 6 9 29.72 1006 10 16 0.00 0.00
8:56 pm 20:56 Clear 34 0.9 26 -3.4 73 73 S 3 6 29.70 1006 10 16 0.00 0.00
9:56 pm 21:56 Mostly Cloudy 38 3.3 28 -2.4 67 67 S 6 9 29.70 1006 10 16 0.00 0.00
10:56 pm 22:56 Cloudy 38 3.1 29 -1.6 72 72 SE 5 7 29.70 1006 10 16 0.00 0.00
11:56 pm 23:56 Cloudy 41 5 31 -0.8 66 66 WSW 6 9 29.69 1005 10 16 0.00 0.00

Powered by AerisWeather